Miscellaneous Local Product
Issued by NWS Hastings, NE

Home | Current Version | Previous Version | Graphics & Text | Print | Product List | Glossary On
Versions: 1 2 3 4 5 6 7 8 9 10 11 12 13 14 15 16 17 18 19 20 21 22 23 24 25 26 27 28 29 30 31 32 33 34 35 36 37 38 39 40 41 42 43 44 45 46 47 48 49 50
000
AXUS43 KGID 270302
MISGRI

GID CWA HOURLY WEATHER ROUNDUP
NATIONAL WEATHER SERVICE HASTINGS NE
1000 PM CDT WED AUG 26 2015

NOTE: "FAIR" INDICATES FEW OR NO CLOUDS BELOW 12,000 FEET WITH NO
SIGNIFICANT WEATHER AND/OR OBSTRUCTIONS TO VISIBILITY.

...SOUTH CENTRAL NEBRASKA...

CITY           SKY/WX    TMP DP  RH WIND       PRES   REMARKS
GRAND ISLAND   CLEAR     74  64  71 SE12      30.05R
HASTINGS       CLEAR     76  66  71 SE15      30.04R
KEARNEY        CLEAR     73  66  78 SE10      30.04R
ORD            CLEAR     75  66  73 E5        30.02R
YORK           CLEAR     72  64  78 SE10      30.07R
AURORA         CLEAR     72  65  79 SE10      30.05S
LEXINGTON      CLEAR     78  71  78 SE12G17   30.02R
HOLDREGE       CLEAR     77  69  78 SE12      30.02R
HEBRON         CLEAR     74  61  62 SE7       30.05S

...NEBRASKA PANHANDLE...

CITY           SKY/WX    TMP DP  RH WIND       PRES   REMARKS
CHADRON        LGT RAIN  88  46  23 SW23G39   29.94R
ALLIANCE       CLOUDY    85  42  22 S10       30.00R
SCOTTSBLUFF    CLOUDY    76  56  49 NW8       30.01R
SIDNEY         CLOUDY    80  39  23 SW9       30.06R

...WESTERN AND NORTH CENTRAL NEBRASKA...

CITY           SKY/WX    TMP DP  RH WIND       PRES   REMARKS
VALENTINE      CLEAR     81  68  64 S15       29.99R
AINSWORTH      PTCLDY    79  69  71 S13       30.01R
ONEILL         PTCLDY    74  68  81 SE12      30.04R
BROKEN BOW     PTCLDY    77  69  76 SE9       30.04R
IMPERIAL       MOCLDY    81  44  27 S12       30.01R
NORTH PLATTE   MOCLDY    74  70  87 E12       30.01R
MCCOOK         MOCLDY    82  51  34 VRB3      29.99R

...EASTERN NEBRASKA...

CITY           SKY/WX    TMP DP  RH WIND       PRES   REMARKS
NORFOLK        CLEAR     68  64  87 SE9       30.06R
SO SIOUX CITY  CLEAR     66  61  84 SE10      30.07R
TEKAMAH        CLEAR     64  62  93 SE5       30.08R
COLUMBUS       CLEAR    N/A N/A N/A SE8       30.06R
ALBION         PTCLDY    72  64  77 SE9       30.05R
OMAHA EPPLEY   CLEAR     70  62  76 SE9       30.09R
OFFUTT AFB     CLEAR     67  62  84 SE6       30.09R
MILLARD        CLEAR     71  63  76 SE7       30.08S
LINCOLN        CLEAR     73  63  70 SE9       30.08R
NEBRASKA CITY  CLEAR     68  59  73 SE7       30.10R
BEATRICE       CLEAR     72  62  70 SE7       30.07S
FALLS CITY     CLEAR     67  63  87 SE8       30.09R

...NORTHERN KANSAS...

CITY           SKY/WX    TMP DP  RH WIND       PRES   REMARKS
GOODLAND       CLOUDY    79  49  34 S14       30.08R
HILL CITY      CLEAR     81  57  43 S6        30.00R
NORTON         CLEAR     81  55  41 SE8       30.00R
PHILLIPSBURG   CLEAR     82  70  65 E5        30.00R
SMITH CENTER   CLEAR     79  70  73 E16       30.02R
HAYS           CLEAR     81  64  57 SE9       30.02R
RUSSELL        PTCLDY    84  68  58 S14       30.01R
CONCORDIA      CLEAR     75  66  73 SE12      30.05R
SALINA         CLEAR     80  69  69 SE12      30.03R
TOPEKA         CLEAR     69  64  84 E6        30.10R



USA.gov is the U.S. government's official web portal to all federal, state and local government web resources and services.